TIMED

Last updated on Sun Jun 21 2026 00:02:59 GMT+0000 (Coordinated Universal Time)

1 26998U 01055B 26171.42031838 .00000698 00000+0 66991-4 0 9998 2 26998 74.0670 228.5087 0001295 331.0039 29.1074 14.95299607331303
UTC large
Height (km)
Speed (km/s)
/
Latitude / Longitude
Inclination (degrees)
Orbital Period (minutes)
Azimuth
Elevation
Range (km)
Doppler Factor

Next 0 passes for location: London (51.5072 / 0.1276)

No passes found over London.
TIMED